Location: Miles
(41.4492°N, 81.6087°W)
Time: 06:13:29
(UTC+00:00)

Courier 1B - Pass Details

Date: 15 September 2024
Orbit: 962 x 1208 km, 28.3° (Epoch: 13 October)

Event Time Altitude Azimuth Distance (km) Brightness Sun altitude
Rises 22:11:56 0° 254° (WSW) 3,977 12.6 14.6°
Reaches altitude 10° 22:15:06 10° 243° (WSW) 3,051 11.9 14.1°
Maximum altitude 22:21:21 28° 188° (S) 2,044 9.5 12.9°
Drops below altitude 10° 22:27:46 10° 132° (SE) 3,135 9.8 11.7°
Sets 22:31:04 0° 122° (ESE) 4,103 10.3 11.1°
